| time (UTC) | temp F | wind direction | speed knots | gust knots | rain 1hr in | rain 24hr in | rain mn in | humidity % | barometer mb |
| 20260902182703 | 67 | 180 | 4.3 | 6.1 | 0.00 | 0.05 | 0.05 | 88 | 1012.3 |
| 20260902182016 | 67 | 192 | 5.2 | 7.0 | 0.00 | 0.05 | 0.05 | 88 | 1012.3 |
| 20260902180903 | 67 | 144 | 4.3 | 6.1 | 0.00 | 0.05 | 0.05 | 89 | 1012.3 |
| 20260902180006 | 67 | 183 | 2.6 | 6.1 | 0.00 | 0.05 | 0.05 | 91 | 1012.2 |
| 20260902175403 | 67 | 143 | 1.7 | 3.5 | 0.00 | 0.05 | 0.05 | 91 | 1012.3 |
| 20260902174503 | 67 | 151 | 2.6 | 3.5 | 0.00 | 0.05 | 0.05 | 91 | 1012.1 |
| 20260902173603 | 67 | 214 | 3.5 | 5.2 | 0.00 | 0.05 | 0.05 | 91 | 1012.2 |
| 20260902172703 | 67 | 180 | 4.3 | 7.0 | 0.00 | 0.05 | 0.05 | 91 | 1012.2 |
| 20260902171803 | 67 | 174 | 4.3 | 8.7 | 0.00 | 0.05 | 0.05 | 92 | 1012.2 |
| 20260902170903 | 67 | 183 | 5.2 | 8.7 | 0.00 | 0.05 | 0.05 | 92 | 1012.0 |
| 20260902170003 | 67 | 184 | 5.2 | 7.8 | 0.00 | 0.05 | 0.05 | 92 | 1012.1 |
| 20260902165403 | 67 | 195 | 5.2 | 7.8 | 0.00 | 0.05 | 0.05 | 93 | 1012.3 |
| 20260902164717 | 67 | 197 | 5.2 | 7.8 | 0.00 | 0.05 | 0.05 | 93 | 1012.2 |
| 20260902163603 | 67 | 203 | 5.2 | 7.0 | 0.00 | 0.05 | 0.05 | 93 | 1012.0 |
| 20260902162918 | 67 | 186 | 6.1 | 9.6 | 0.00 | 0.05 | 0.05 | 93 | 1012.1 |
| 20260902161803 | 67 | 180 | 7.0 | 9.6 | 0.00 | 0.05 | 0.05 | 93 | 1012.1 |
| 20260902160903 | 67 | 155 | 7.8 | 11.3 | 0.00 | 0.05 | 0.05 | 95 | 1011.8 |
| 20260902160218 | 67 | 168 | 7.8 | 9.6 | 0.00 | 0.05 | 0.05 | 96 | 1012.1 |
| 20260902155618 | 67 | 192 | 7.8 | 9.6 | 0.00 | 0.05 | 0.05 | 97 | 1011.7 |
| 20260902154717 | 66 | 201 | 7.8 | 9.6 | 0.00 | 0.05 | 0.05 | 100 | 1011.8 |
| 20260902153603 | 66 | 178 | 6.1 | 7.8 | 0.00 | 0.05 | 0.05 | 100 | 1012.0 |
| 20260902152703 | 66 | 137 | 7.0 | 9.6 | 0.00 | 0.05 | 0.05 | 100 | 1012.4 |
| 20260902151803 | 65 | 195 | 7.0 | 9.6 | 0.00 | 0.05 | 0.05 | 100 | 1012.4 |
| 20260902150903 | 65 | 208 | 7.0 | 9.6 | 0.00 | 0.05 | 0.05 | 100 | 1012.4 |
| 20260902150003 | 65 | 205 | 7.8 | 12.2 | 0.00 | 0.05 | 0.05 | 100 | 1012.1 |
| 20260902145617 | 65 | 199 | 7.8 | 12.2 | 0.00 | 0.05 | 0.05 | 100 | 1012.2 |
| 20260902144503 | 64 | 192 | 6.1 | 8.7 | 0.00 | 0.05 | 0.05 | 100 | 1012.4 |
| 20260902143603 | 64 | 185 | 7.0 | 9.6 | 0.00 | 0.05 | 0.05 | 100 | 1012.3 |
| 20260902142705 | 64 | 200 | 7.8 | 9.6 | 0.00 | 0.05 | 0.05 | 100 | 1012.3 |
| 20260902141803 | 64 | 215 | 7.0 | 9.6 | 0.00 | 0.05 | 0.05 | 100 | 1012.5 |
| 20260902141118 | 65 | 213 | 7.0 | 12.2 | 0.00 | 0.05 | 0.05 | 100 | 1012.5 |
| 20260902140003 | 65 | 197 | 7.0 | 10.4 | 0.00 | 0.05 | 0.05 | 100 | 1012.2 |
| 20260902135403 | 65 | 208 | 7.8 | 10.4 | 0.00 | 0.05 | 0.05 | 100 | 1012.6 |
| 20260902134503 | 65 | 154 | 7.0 | 13.0 | 0.00 | 0.05 | 0.05 | 100 | 1012.3 |
| 20260902133817 | 65 | 177 | 6.1 | 13.0 | 0.00 | 0.05 | 0.05 | 100 | 1012.7 |
| 20260902132703 | 64 | 168 | 7.0 | 8.7 | 0.00 | 0.05 | 0.05 | 97 | 1012.9 |
| 20260902131803 | 64 | 214 | 6.1 | 9.6 | 0.00 | 0.05 | 0.05 | 97 | 1012.6 |
| 20260902130903 | 64 | 170 | 7.8 | 11.3 | 0.00 | 0.05 | 0.05 | 96 | 1012.8 |
| 20260902130003 | 64 | 189 | 7.8 | 10.4 | 0.00 | 0.05 | 0.05 | 96 | 1012.8 |
| 20260902125403 | 64 | 200 | 7.0 | 9.6 | 0.01 | 0.05 | 0.05 | 96 | 1012.8 |
| 20260902124503 | 64 | 188 | 11.3 | 17.4 | 0.01 | 0.05 | 0.05 | 96 | 1012.8 |
| 20260902123603 | 64 | 199 | 7.8 | 12.2 | 0.02 | 0.05 | 0.05 | 96 | 1012.8 |
| 20260902122703 | 64 | 200 | 10.4 | 13.9 | 0.02 | 0.05 | 0.05 | 95 | 1013.0 |
| 20260902122018 | 64 | 208 | 8.7 | 13.9 | 0.02 | 0.05 | 0.05 | 95 | 1012.8 |
| 20260902120903 | 64 | 198 | 7.8 | 11.3 | 0.02 | 0.05 | 0.05 | 95 | 1012.7 |
| 20260902120216 | 63 | 193 | 7.0 | 11.3 | 0.02 | 0.05 | 0.05 | 97 | 1012.9 |
| 20260902115403 | 63 | 204 | 7.8 | 10.4 | 0.01 | 0.04 | 0.04 | 96 | 1013.3 |
| 20260902114503 | 63 | 204 | 7.8 | 12.2 | 0.01 | 0.04 | 0.04 | 95 | 1013.3 |
| 20260902113603 | 63 | 181 | 8.7 | 12.2 | 0.00 | 0.02 | 0.02 | 94 | 1013.4 |
| 20260902112703 | 63 | 179 | 7.8 | 13.0 | 0.00 | 0.02 | 0.02 | 94 | 1013.4 |
| 20260902111803 | 63 | 167 | 7.8 | 12.2 | 0.00 | 0.02 | 0.02 | 93 | 1013.5 |
| 20260902110903 | 63 | 189 | 8.7 | 12.2 | 0.00 | 0.02 | 0.02 | 92 | 1013.6 |
| 20260902110004 | 63 | 202 | 9.6 | 13.0 | 0.00 | 1.00 | 0.02 | 90 | 1013.7 |
| 20260902105618 | 63 | 171 | 9.6 | 12.2 | 0.00 | 1.98 | 0.02 | 89 | 1013.6 |
| 20260902104503 | 64 | 182 | 9.6 | 13.0 | 0.00 | 1.98 | 0.02 | 82 | 1013.8 |
| 20260902103603 | 65 | 213 | 11.3 | 18.2 | 0.00 | 1.98 | 0.02 | 81 | 1013.7 |
| 20260902102703 | 65 | 214 | 10.4 | 13.0 | 0.00 | 1.98 | 0.02 | 81 | 1013.4 |
| 20260902101803 | 65 | 196 | 9.6 | 14.8 | 0.00 | 1.98 | 0.02 | 82 | 1013.5 |
| 20260902101116 | 65 | 183 | 10.4 | 14.8 | 0.00 | 1.98 | 0.02 | 83 | 1013.7 |
| 20260902100003 | 65 | 190 | 8.7 | 13.0 | 0.00 | 1.98 | 0.02 | 84 | 1013.5 |
| 20260902095403 | 65 | 201 | 8.7 | 12.2 | 0.00 | 1.98 | 0.02 | 85 | 1013.4 |
| 20260902094503 | 64 | 179 | 9.6 | 14.8 | 0.00 | 1.98 | 0.02 | 84 | 1014.0 |
| 20260902093603 | 64 | 178 | 8.7 | 14.8 | 0.00 | 1.98 | 0.02 | 84 | 1014.1 |
| 20260902092703 | 64 | 208 | 7.8 | 10.4 | 0.00 | 1.98 | 0.02 | 84 | 1013.7 |
| 20260902091803 | 63 | 199 | 7.0 | 9.6 | 0.00 | 1.98 | 0.02 | 89 | 1013.7 |
| 20260902090903 | 63 | 172 | 7.0 | 10.4 | 0.00 | 1.98 | 0.02 | 91 | 1014.0 |
| 20260902090003 | 63 | 209 | 7.0 | 10.4 | 0.01 | 1.98 | 0.02 | 92 | 1014.1 |
| 20260902085403 | 63 | 130 | 6.1 | 9.6 | 0.01 | 1.98 | 0.02 | 93 | 1013.9 |
| 20260902084503 | 63 | 162 | 7.0 | 8.7 | 0.01 | 1.98 | 0.02 | 93 | 1013.9 |
| 20260902083603 | 62 | 230 | 5.2 | 10.4 | 0.01 | 1.98 | 0.02 | 93 | 1013.9 |
| 20260902082917 | 62 | 171 | 7.0 | 10.4 | 0.02 | 1.98 | 0.02 | 92 | 1014.0 |
| 20260902081803 | 62 | 220 | 7.0 | 9.6 | 0.02 | 1.98 | 0.02 | 92 | 1014.0 |
| 20260902080903 | 62 | 194 | 6.1 | 9.6 | 0.02 | 1.98 | 0.02 | 93 | 1014.0 |
| 20260902080217 | 61 | 218 | 7.0 | 9.6 | 0.01 | 1.97 | 0.01 | 94 | 1013.6 |
| 20260902075403 | 62 | 182 | 5.2 | 7.0 | 0.01 | 1.97 | 0.01 | 95 | 1014.0 |
| 20260902074503 | 62 | 193 | 7.0 | 9.6 | 0.01 | 1.97 | 0.01 | 95 | 1013.8 |
| 20260902073603 | 62 | 209 | 5.2 | 9.6 | 0.01 | 1.97 | 0.01 | 95 | 1014.1 |
| 20260902072703 | 62 | 168 | 4.3 | 7.0 | 0.00 | 1.96 | 0.00 | 96 | 1013.8 |
| 20260902071803 | 62 | 180 | 4.3 | 7.0 | 0.00 | 1.96 | 0.00 | 97 | 1013.7 |
| 20260902070903 | 62 | 180 | 3.5 | 5.2 | 0.00 | 1.96 | 0.00 | 100 | 1013.9 |
| 20260902070004 | 62 | 190 | 3.5 | 5.2 | 0.00 | 1.96 | 0.00 | 100 | 1013.7 |
| 20260902065403 | 62 | 172 | 4.3 | 5.2 | 0.00 | 1.96 | 0.00 | 100 | 1014.1 |
| 20260902064503 | 62 | 184 | 4.3 | 6.1 | 0.00 | 1.96 | 0.00 | 97 | 1013.9 |
| 20260902063603 | 61 | 170 | 3.5 | 7.0 | 0.00 | 1.96 | 0.00 | 97 | 1013.8 |
| 20260902062918 | 61 | 172 | 3.5 | 5.2 | 0.00 | 1.96 | 0.00 | 96 | 1013.9 |
| 20260902061803 | 61 | 144 | 2.6 | 6.1 | 0.00 | 1.96 | 0.00 | 96 | 1013.5 |
| 20260902060903 | 61 | 114 | 1.7 | 3.5 | 0.00 | 1.96 | 0.00 | 95 | 1013.6 |
| 20260902060003 | 61 | 185 | 1.7 | 3.5 | 0.00 | 1.96 | 0.00 | 95 | 1014.0 |
| 20260902055403 | 61 | 171 | 2.6 | 4.3 | 0.00 | 1.96 | 0.00 | 95 | 1014.0 |
| 20260902054503 | 61 | 157 | 2.6 | 4.3 | 0.00 | 1.96 | 0.00 | 94 | 1013.9 |
| 20260902053603 | 61 | 189 | 2.6 | 4.3 | 0.00 | 1.96 | 0.00 | 94 | 1013.9 |
| 20260902052703 | 61 | 188 | 3.5 | 4.3 | 0.00 | 1.96 | 0.00 | 95 | 1014.1 |
| 20260902052017 | 60 | 186 | 3.5 | 4.3 | 0.00 | 1.96 | 0.00 | 95 | 1013.9 |
| 20260902050903 | 60 | 162 | 4.3 | 7.0 | 0.00 | 1.96 | 0.00 | 96 | 1014.0 |
| 20260902050004 | 60 | 175 | 4.3 | 7.0 | 0.00 | 1.96 | 0.00 | 96 | 1014.0 |
| 20260902045403 | 60 | 170 | 3.5 | 6.1 | 0.00 | 1.96 | 0.00 | 96 | 1013.9 |
| 20260902044717 | 59 | 181 | 2.6 | 3.5 | 0.00 | 1.96 | 0.00 | 95 | 1014.0 |
| 20260902043603 | 59 | 139 | 1.7 | 1.7 | 0.00 | 1.96 | 0.00 | 95 | 1014.4 |
| 20260902042703 | 59 | 164 | 0.9 | 1.7 | 0.00 | 1.96 | 0.00 | 95 | 1014.2 |
| 20260902041803 | 59 | 159 | 0.9 | 2.6 | 0.00 | 1.96 | 0.00 | 94 | 1014.4 |
| 20260902040903 | 59 | 153 | 1.7 | 2.6 | 0.00 | 1.96 | 0.00 | 94 | 1014.2 |
| 20260902040217 | 59 | 159 | 1.7 | 3.5 | 0.00 | 1.96 | 0.00 | 94 | 1014.4 |
| 20260902035617 | 59 | 131 | 1.7 | 3.5 | 0.00 | 1.96 | 0.00 | 94 | 1014.5 |
| 20260902034503 | 59 | 162 | 0.9 | 1.7 | 0.00 | 1.96 | 0.00 | 94 | 1014.3 |
| 20260902033603 | 59 | 178 | 0.9 | 1.7 | 0.00 | 1.96 | 0.00 | 93 | 1014.6 |
| 20260902032703 | 59 | 161 | 1.7 | 3.5 | 0.00 | 1.96 | 0.00 | 93 | 1014.8 |
| 20260902031803 | 58 | 172 | 0.9 | 3.5 | 0.00 | 1.96 | 0.00 | 93 | 1014.7 |
| 20260902030903 | 58 | 0 | 0.0 | 0.0 | 0.00 | 1.96 | 0.00 | 92 | 1014.6 |
| 20260902030003 | 58 | 0 | 0.0 | 0.0 | 0.00 | 1.96 | 0.00 | 92 | 1015.0 |
| 20260902025403 | 58 | 0 | 0.0 | 0.0 | 0.00 | 1.96 | 0.00 | 92 | 1014.9 |
| 20260902024503 | 58 | 0 | 0.0 | 0.0 | 0.00 | 1.96 | 0.00 | 92 | 1015.0 |
| 20260902023603 | 58 | 0 | 0.0 | 0.0 | 0.00 | 1.96 | 0.00 | 91 | 1015.2 |
| 20260902022703 | 58 | 0 | 0.0 | 0.0 | 0.00 | 1.96 | 0.00 | 91 | 1015.2 |
| 20260902021803 | 58 | 183 | 0.0 | 0.9 | 0.00 | 1.96 | 0.00 | 91 | 1015.3 |
| 20260902020903 | 58 | 101 | 0.9 | 1.7 | 0.00 | 1.96 | 0.00 | 91 | 1015.1 |
| 20260902020003 | 58 | 135 | 0.9 | 1.7 | 0.00 | 1.96 | 0.00 | 91 | 1015.0 |
| 20260902015616 | 58 | 135 | 0.0 | 1.7 | 0.00 | 1.96 | 0.00 | 91 | 1015.1 |
| 20260902014503 | 58 | 150 | 0.0 | 0.9 | 0.00 | 1.96 | 0.00 | 91 | 1015.3 |
| 20260902013603 | 58 | 151 | 0.0 | 0.9 | 0.00 | 1.96 | 0.00 | 91 | 1015.4 |
| 20260902012703 | 58 | 178 | 1.7 | 1.7 | 0.00 | 1.96 | 0.00 | 91 | 1015.5 |
| 20260902011803 | 58 | 172 | 0.9 | 1.7 | 0.00 | 1.96 | 0.00 | 90 | 1015.9 |
| 20260902010903 | 58 | 172 | 0.9 | 1.7 | 0.00 | 1.96 | 0.00 | 89 | 1015.6 |
| 20260902010003 | 58 | 189 | 0.9 | 1.7 | 0.00 | 1.96 | 0.00 | 89 | 1015.4 |
| 20260902005618 | 58 | 154 | 0.9 | 1.7 | 0.00 | 1.96 | 0.00 | 89 | 1015.3 |
| 20260902004503 | 59 | 123 | 0.9 | 1.7 | 0.00 | 1.96 | 0.00 | 88 | 1015.4 |
| 20260902003603 | 59 | 112 | 0.9 | 1.7 | 0.00 | 1.96 | 0.00 | 88 | 1015.6 |
| 20260902002703 | 59 | 93 | 0.9 | 1.7 | 0.00 | 1.96 | 0.00 | 87 | 1015.8 |
| 20260902001803 | 59 | 131 | 0.9 | 1.7 | 0.00 | 1.96 | 0.00 | 87 | 1016.0 |
| 20260902000903 | 59 | 154 | 0.9 | 1.7 | 0.00 | 1.96 | 0.00 | 86 | 1015.9 |
| 20260902000003 | 59 | 126 | 0.9 | 1.7 | 0.00 | 1.96 | 0.00 | 86 | 1015.7 |
| 20260901235403 | 59 | 117 | 0.9 | 1.7 | 0.00 | 1.96 | 0.00 | 86 | 1016.2 |
| 20260901234503 | 59 | 96 | 0.0 | 0.9 | 0.00 | 1.96 | 0.00 | 85 | 1016.1 |
| 20260901233603 | 59 | 182 | 0.0 | 0.9 | 0.00 | 1.96 | 0.00 | 85 | 1016.0 |
| 20260901232703 | 59 | 178 | 0.9 | 1.7 | 0.00 | 1.96 | 0.00 | 85 | 1016.3 |
| 20260901231803 | 59 | 167 | 0.9 | 1.7 | 0.00 | 1.96 | 0.00 | 84 | 1016.1 |
| 20260901231116 | 59 | 107 | 0.0 | 0.9 | 0.00 | 1.96 | 0.00 | 83 | 1015.9 |
| 20260901230004 | 59 | 165 | 0.9 | 1.7 | 0.00 | 1.96 | 0.00 | 83 | 1016.0 |
| 20260901225403 | 60 | 161 | 0.9 | 1.7 | 0.00 | 1.96 | 0.00 | 83 | 1016.0 |
| 20260901224717 | 60 | 140 | 0.0 | 0.9 | 0.00 | 1.96 | 0.00 | 82 | 1016.1 |
| 20260901223818 | 60 | 180 | 0.9 | 1.7 | 0.00 | 1.96 | 0.00 | 81 | 1016.1 |
| 20260901222703 | 60 | 123 | 0.0 | 1.7 | 0.00 | 1.96 | 0.00 | 81 | 1016.0 |
| 20260901221803 | 60 | 170 | 0.9 | 1.7 | 0.00 | 1.96 | 0.00 | 81 | 1015.7 |
| 20260901220903 | 60 | 120 | 0.9 | 1.7 | 0.00 | 1.96 | 0.00 | 80 | 1015.7 |
| 20260901220003 | 60 | 90 | 0.9 | 1.7 | 0.00 | 1.96 | 0.00 | 80 | 1015.8 |
| 20260901215403 | 61 | 85 | 0.0 | 0.9 | 0.00 | 1.96 | 0.00 | 80 | 1016.1 |
| 20260901214503 | 61 | 90 | 0.0 | 0.9 | 0.00 | 1.96 | 0.00 | 79 | 1016.1 |
| 20260901213603 | 61 | 135 | 0.0 | 0.9 | 0.00 | 1.96 | 0.00 | 78 | 1015.9 |
| 20260901212703 | 61 | 133 | 0.0 | 0.9 | 0.00 | 1.96 | 0.00 | 78 | 1016.0 |
| 20260901211803 | 61 | 121 | 1.7 | 3.5 | 0.00 | 1.96 | 0.00 | 77 | 1015.9 |
| 20260901210903 | 62 | 295 | 1.7 | 2.6 | 0.00 | 1.96 | 0.00 | 77 | 1016.1 |
| 20260901210003 | 62 | 195 | 0.9 | 1.7 | 0.00 | 1.96 | 0.00 | 77 | 1016.2 |
| 20260901205616 | 62 | 176 | 0.9 | 2.6 | 0.00 | 1.96 | 0.00 | 77 | 1016.2 |
| 20260901204503 | 62 | 219 | 1.7 | 1.7 | 0.00 | 1.96 | 0.00 | 76 | 1015.8 |
| 20260901203817 | 62 | 195 | 1.7 | 3.5 | 0.00 | 1.96 | 0.00 | 76 | 1016.1 |
| 20260901202916 | 62 | 205 | 1.7 | 2.6 | 0.00 | 1.96 | 0.00 | 76 | 1016.2 |
| 20260901201803 | 62 | 168 | 2.6 | 3.5 | 0.00 | 1.96 | 0.00 | 77 | 1016.0 |
| 20260901200903 | 62 | 185 | 1.7 | 2.6 | 0.00 | 1.96 | 0.00 | 76 | 1016.2 |
| 20260901200003 | 62 | 180 | 1.7 | 3.5 | 0.00 | 1.96 | 0.00 | 76 | 1015.9 |
| 20260901195403 | 63 | 169 | 1.7 | 3.5 | 0.00 | 1.96 | 0.00 | 76 | 1016.0 |
| 20260901194503 | 63 | 255 | 2.6 | 5.2 | 0.00 | 1.96 | 0.00 | 76 | 1016.1 |
| 20260901193817 | 63 | 154 | 1.7 | 5.2 | 0.00 | 1.96 | 0.00 | 76 | 1015.9 |
| 20260901192918 | 63 | 206 | 1.7 | 3.5 | 0.00 | 1.96 | 0.00 | 75 | 1016.1 |
| 20260901191803 | 63 | 179 | 1.7 | 2.6 | 0.00 | 1.96 | 0.00 | 74 | 1015.8 |
| 20260901190903 | 63 | 191 | 1.7 | 3.5 | 0.00 | 1.96 | 0.00 | 74 | 1016.1 |
| 20260901190218 | 63 | 192 | 1.7 | 3.5 | 0.00 | 1.96 | 0.00 | 73 | 1015.9 |
| 20260901185403 | 63 | 172 | 2.6 | 3.5 | 0.00 | 1.96 | 0.00 | 73 | 1015.9 |
| 20260901184717 | 64 | 161 | 2.6 | 3.5 | 0.00 | 1.96 | 0.00 | 70 | 1015.7 |
| 20260901183603 | 64 | 232 | 2.6 | 4.3 | 0.00 | 1.96 | 0.00 | 67 | 1015.7 |